FW7820 Weather Reports


Display with metric or nautical units.
time (UTC)temp
F
wind
direction
speed
MPH
gust
MPH
rain 1hr
in
rain 24hr
in
rain mn
in
humidity
%
barometer
mb
20260506211321 80 60 0.0 0.0 0.00 0.08 0.08 99 1010.9
20260506210818 80 72 0.0 0.0 0.00 0.08 0.08 99 1010.9
20260506210315 80 101 0.0 0.0 0.00 0.08 0.08 99 1011.3
20260506205812 80 80 0.0 0.0 0.00 0.08 0.08 99 1011.4
20260506205308 80 99 0.0 0.0 0.00 0.08 0.08 99 1011.3
20260506204804 80 74 0.0 0.0 0.00 0.08 0.08 99 1011.3
20260506204303 80 67 0.0 0.0 0.00 0.08 0.08 99 1011.5
20260506203800 80 52 0.0 0.0 0.00 0.08 0.08 99 1011.4
20260506203257 79 84 0.0 0.0 0.00 0.08 0.08 99 1011.3
20260506202754 79 65 0.0 0.0 0.00 0.08 0.08 99 1011.4
20260506202251 79 72 0.0 0.0 0.05 0.08 0.08 99 1011.6
20260506201747 79 80 0.0 0.0 0.05 0.08 0.08 99 1011.9
20260506201244 79 81 0.0 0.0 0.07 0.07 0.07 98 1012.0
20260506200741 80 77 0.0 0.0 0.38 0.07 0.07 97 1011.9
20260506200238 80 84 0.0 1.0 0.31 0.06 0.06 95 1011.9
20260506195734 81 85 0.0 0.0 0.00 0.01 0.01 94 1011.9
20260506195230 81 101 1.0 1.0 0.00 0.01 0.01 93 1012.0
20260506194728 81 86 0.0 0.0 0.00 0.01 0.01 92 1011.9
20260506194224 81 90 0.0 0.0 0.00 0.01 0.01 92 1012.2
20260506193722 81 75 0.0 0.0 0.00 0.01 0.01 93 1012.4
20260506193219 81 87 1.0 1.0 0.00 0.01 0.01 92 1012.3
20260506192715 80 73 0.0 0.0 0.00 0.01 0.01 93 1012.5
20260506192212 80 75 0.0 0.0 0.00 0.01 0.01 93 1012.7
20260506191709 81 113 1.0 2.0 0.00 0.01 0.01 92 1012.9
20260506191205 81 102 0.0 1.0 0.00 0.01 0.01 91 1013.0
20260506190703 82 258 0.0 0.0 0.00 0.01 0.01 90 1012.9
20260506190159 82 188 0.0 0.0 0.00 0.01 0.01 88 1012.9
20260506185656 83 4 1.0 1.0 0.00 0.01 0.01 88 1012.8
20260506185152 83 49 0.0 0.0 0.00 0.01 0.01 91 1013.0
20260506184650 82 115 0.0 1.0 0.00 0.01 0.01 91 1013.0
20260506184147 81 72 0.0 1.0 0.00 0.01 0.01 92 1012.8
20260506183644 81 101 0.0 1.0 0.00 0.01 0.01 92 1013.2
20260506183140 81 130 0.0 0.0 0.00 0.01 0.01 92 1013.2
20260506182637 81 105 0.0 1.0 0.00 0.01 0.01 92 1013.0
20260506182134 81 69 0.0 0.0 0.00 0.01 0.01 92 1013.0
20260506181632 81 134 0.0 1.0 0.00 0.01 0.01 91 1013.2
20260506181129 81 153 0.0 0.0 0.00 0.01 0.01 93 1013.4
20260506180626 81 139 0.0 0.0 0.00 0.01 0.01 93 1013.2
20260506180122 80 36 0.0 0.0 0.00 0.01 0.01 94 1013.4
20260506175618 80 79 0.0 0.0 0.00 0.01 0.01 94 1013.3
20260506175114 79 70 0.0 0.0 0.00 0.01 0.01 94 1013.5
20260506174614 79 96 0.0 0.0 0.00 0.01 0.01 94 1013.7
20260506174110 80 70 0.0 0.0 0.00 0.01 0.01 94 1013.6
20260506173608 80 147 0.0 1.0 0.00 0.01 0.01 94 1013.7
20260506173104 80 113 0.0 0.0 0.00 0.01 0.01 94 1013.6
20260506172602 80 105 0.0 1.0 0.00 0.01 0.01 93 1013.7
20260506172057 79 94 0.0 0.0 0.00 0.01 0.01 95 1013.9
20260506171555 79 109 0.0 0.0 0.00 0.01 0.01 96 1013.8
20260506171053 78 90 0.0 0.0 0.00 0.01 0.01 97 1013.9
20260506170550 78 89 0.0 1.0 0.00 0.01 0.01 98 1013.8
20260506170047 77 59 0.0 0.0 0.00 0.01 0.01 99 1014.1
20260506165546 77 95 0.0 0.0 0.00 0.01 0.01 99 1013.9
20260506165042 77 20 0.0 0.0 0.00 0.01 0.01 99 1013.9
20260506164539 77 70 0.0 0.0 0.00 0.01 0.01 99 1013.9
20260506164036 76 45 0.0 0.0 0.00 0.01 0.01 99 1014.0
20260506163532 76 42 0.0 0.0 0.00 0.01 0.01 99 1014.2
20260506163027 76 69 0.0 0.0 0.00 0.01 0.01 99 1014.0
20260506162524 76 71 0.0 0.0 0.00 0.01 0.01 99 1014.0
20260506162021 77 78 0.0 0.0 0.00 0.01 0.01 99 1013.9
20260506161519 77 68 0.0 0.0 0.00 0.01 0.01 99 1014.0
20260506161015 76 75 0.0 0.0 0.05 0.01 0.01 99 1013.7
20260506160513 75 70 0.0 0.0 0.05 0.01 0.01 99 1013.7
20260506160010 75 74 0.0 0.0 0.00 0.00 0.00 99 1013.8
20260506155508 75 59 0.0 0.0 0.00 0.00 0.00 99 1013.8
20260506153640 75 70 0.0 0.0 0.00 0.00 0.00 99 1013.9
20260506153137 74 68 0.0 0.0 0.00 0.00 0.00 99 1014.0
20260506152634 74 59 0.0 0.0 0.00 0.00 0.00 99 1013.8
20260506152132 74 59 0.0 0.0 0.00 0.00 0.00 99 1013.9
20260506151630 74 73 0.0 0.0 0.00 0.00 0.00 99 1013.7
20260506151127 74 66 0.0 0.0 0.00 0.00 0.00 99 1013.8
20260506150624 74 59 0.0 0.0 0.00 0.00 0.00 99 1013.9
20260506150120 74 69 0.0 0.0 0.00 0.00 0.00 99 1013.6
20260506145618 74 76 0.0 0.0 0.00 0.00 0.00 99 1014.0
20260506145114 74 68 0.0 0.0 0.00 0.00 0.00 99 1013.8
20260506144612 74 70 0.0 0.0 0.00 0.00 0.00 99 1013.9
20260506144108 74 70 0.0 0.0 0.00 0.00 0.00 99 1013.8
20260506143606 73 76 0.0 0.0 0.00 0.00 0.00 99 1013.7
20260506143104 73 35 0.0 0.0 0.00 0.00 0.00 99 1013.7
20260506142602 73 244 0.0 0.0 0.00 0.00 0.00 99 1013.7
20260506142100 73 68 0.0 0.0 0.00 0.00 0.00 99 1013.6
20260506141557 73 67 0.0 0.0 0.00 0.00 0.00 99 1013.6
20260506141055 73 68 0.0 0.0 0.00 0.00 0.00 99 1013.3
20260506140552 73 61 0.0 0.0 0.00 0.00 0.00 99 1013.5
20260506140050 73 48 0.0 0.0 0.00 0.00 0.00 99 1013.4
20260506135546 73 64 0.0 0.0 0.00 0.00 0.00 99 1013.4
20260506135042 73 64 0.0 0.0 0.00 0.00 0.00 99 1013.2
20260506134539 73 80 0.0 0.0 0.00 0.00 0.00 99 1013.2
20260506134035 73 54 0.0 0.0 0.00 0.00 0.00 99 1013.2
20260506133532 73 68 0.0 0.0 0.00 0.00 0.00 99 1013.0
20260506133029 73 76 0.0 0.0 0.00 0.00 0.00 99 1013.0
20260506132526 72 66 0.0 0.0 0.00 0.00 0.00 99 1013.1
20260506132024 72 76 0.0 0.0 0.00 0.00 0.00 99 1013.0
20260506131521 72 69 0.0 0.0 0.00 0.00 0.00 99 1013.2
20260506131017 72 68 0.0 0.0 0.00 0.00 0.00 99 1013.1
20260506130514 72 71 0.0 0.0 0.00 0.00 0.00 99 1013.3
20260506130012 72 48 0.0 0.0 0.00 0.00 0.00 99 1013.1
20260506125510 71 66 0.0 0.0 0.00 0.00 0.00 99 1013.1
20260506125007 71 68 0.0 0.0 0.00 0.00 0.00 99 1012.9
20260506124505 71 90 0.0 0.0 0.00 0.00 0.00 99 1012.9
20260506124003 71 71 0.0 0.0 0.00 0.00 0.00 99 1012.8
20260506123500 71 99 0.0 0.0 0.00 0.00 0.00 99 1012.6
20260506122958 71 87 0.0 0.0 0.00 0.00 0.00 99 1012.7
20260506122455 71 72 0.0 0.0 0.00 0.00 0.00 99 1012.6
20260506121953 71 68 0.0 0.0 0.00 0.00 0.00 99 1012.6
20260506121450 71 68 0.0 0.0 0.00 0.00 0.00 99 1012.6
20260506120946 71 48 0.0 0.0 0.00 0.00 0.00 99 1012.1
20260506120444 71 66 0.0 0.0 0.00 0.00 0.00 99 1012.1
20260506115941 71 84 0.0 0.0 0.00 0.00 0.00 99 1012.0
20260506115439 71 76 0.0 0.0 0.00 0.00 0.00 99 1012.0
20260506114937 71 100 0.0 0.0 0.00 0.00 0.00 99 1011.9
20260506114434 71 82 0.0 0.0 0.00 0.00 0.00 99 1012.0
20260506113933 71 75 0.0 0.0 0.00 0.00 0.00 99 1012.0
20260506113430 70 59 0.0 0.0 0.00 0.00 0.00 99 1011.8
20260506112926 70 74 0.0 0.0 0.00 0.00 0.00 99 1011.8
20260506112424 70 59 0.0 0.0 0.00 0.00 0.00 99 1011.7
20260506111921 70 83 0.0 0.0 0.00 0.00 0.00 99 1011.7
20260506111419 70 76 0.0 0.0 0.00 0.00 0.00 99 1012.0
20260506110910 70 77 0.0 0.0 0.00 0.00 0.00 99 1011.7
20260506110408 70 71 0.0 0.0 0.00 0.00 0.00 99 1011.9
20260506105905 70 60 0.0 0.0 0.00 0.00 0.00 99 1011.8
20260506105401 70 56 0.0 0.0 0.00 0.00 0.00 99 1012.2
20260506104858 70 60 0.0 0.0 0.00 0.00 0.00 99 1011.9
20260506104356 70 59 0.0 0.0 0.00 0.00 0.00 99 1011.7
20260506103853 70 76 0.0 0.0 0.00 0.00 0.00 99 1011.9
20260506103351 70 76 0.0 0.0 0.00 0.00 0.00 99 1012.0
20260506102848 70 73 0.0 0.0 0.00 0.00 0.00 99 1011.5
20260506102346 70 83 0.0 0.0 0.00 0.00 0.00 99 1011.6
20260506101843 70 72 0.0 0.0 0.00 0.00 0.00 99 1011.6
20260506101339 70 76 0.0 0.0 0.00 0.00 0.00 99 1011.5
20260506100837 70 80 0.0 0.0 0.00 0.00 0.00 99 1011.3
20260506100335 70 75 0.0 0.0 0.00 0.00 0.00 99 1011.4
20260506095833 70 80 0.0 0.0 0.00 0.00 0.00 99 1011.5
20260506095330 70 77 0.0 0.0 0.00 0.00 0.00 99 1011.4
20260506094826 70 86 0.0 0.0 0.00 0.00 0.00 99 1011.4
20260506094325 70 78 0.0 0.0 0.00 0.00 0.00 99 1011.5
20260506093823 70 90 0.0 0.0 0.00 0.00 0.00 99 1011.5
20260506093320 70 91 0.0 0.0 0.00 0.00 0.00 98 1011.6
20260506092818 70 137 0.0 0.0 0.00 0.00 0.00 98 1011.5
20260506092316 70 82 0.0 0.0 0.00 0.00 0.00 98 1011.2
20260506091812 70 85 0.0 0.0 0.00 0.00 0.00 99 1011.3
20260506091310 70 69 0.0 0.0 0.00 0.00 0.00 98 1011.1
20260506090807 70 147 0.0 0.0 0.00 0.00 0.00 99 1010.9
20260506090304 70 90 0.0 0.0 0.00 0.00 0.00 99 1010.8
20260506085801 70 90 0.0 0.0 0.00 0.00 0.00 99 1010.8
20260506085257 70 146 0.0 0.0 0.00 0.00 0.00 99 1010.7
20260506084754 70 104 0.0 0.0 0.00 0.00 0.00 99 1010.8
20260506084250 70 84 0.0 0.0 0.00 0.00 0.00 99 1010.8
20260506083748 70 83 0.0 0.0 0.00 0.00 0.00 99 1010.8
20260506083245 70 96 0.0 0.0 0.00 0.00 0.00 99 1010.9
20260506082743 70 82 0.0 0.0 0.00 0.00 0.00 99 1011.1
20260506082237 70 75 0.0 0.0 0.00 0.00 0.00 99 1011.1
20260506081736 70 68 0.0 0.0 0.00 0.00 0.00 99 1010.9
20260506081233 70 86 0.0 0.0 0.00 0.00 0.00 99 1010.9
20260506080731 70 80 0.0 0.0 0.00 0.00 0.00 99 1011.0
20260506080227 70 75 0.0 0.0 0.00 0.00 0.00 99 1011.1
20260506073211 70 86 0.0 0.0 0.00 0.00 0.00 99 1011.5
20260506072708 70 83 0.0 0.0 0.00 0.00 0.00 99 1011.2
20260506072206 70 93 0.0 0.0 0.00 0.00 0.00 99 1011.3
20260506071703 70 100 0.0 0.0 0.00 0.00 0.00 99 1011.3
20260506071201 70 102 0.0 0.0 0.00 0.00 0.00 99 1011.5
20260506070657 70 74 0.0 0.0 0.00 0.00 0.00 99 1011.2
20260506070154 70 87 0.0 0.0 0.00 0.00 0.00 99 1011.3
20260506062131 69 81 0.0 0.0 0.00 0.00 0.00 99 1011.7
20260506061627 69 112 1.0 1.0 0.00 0.00 0.00 99 1011.6
20260506061125 69 111 0.0 0.0 0.00 0.00 0.00 99 1011.7
20260506060624 69 81 1.0 1.0 0.00 0.00 0.00 99 1011.8
20260506060120 69 95 0.0 0.0 0.00 0.00 0.00 99 1011.7
20260506051052 69 18 1.0 2.0 0.00 0.00 0.00 99 1012.0
20260506050550 69 76 0.0 0.0 0.00 0.00 0.00 99 1012.0
20260506045040 69 92 0.0 0.0 0.00 0.00 0.00 99 1011.9
20260506044538 69 137 0.0 0.0 0.00 0.00 0.00 99 1011.8
20260506044035 69 197 0.0 0.0 0.00 0.00 0.00 99 1012.0
20260506043532 69 74 0.0 0.0 0.00 0.00 0.00 99 1011.9
20260506043030 69 81 0.0 0.0 0.00 0.00 0.00 99 1012.2
20260506042529 69 74 0.0 0.0 0.00 0.00 0.00 99 1012.1
20260506042027 69 98 0.0 0.0 0.00 0.00 0.00 99 1012.1
20260506041525 69 101 0.0 0.0 0.00 0.00 0.00 99 1012.3
20260506041022 69 85 0.0 0.0 0.00 0.00 0.00 98 1012.5
20260506040520 69 53 0.0 0.0 0.00 0.00 0.00 98 1012.2
20260506040015 69 67 0.0 0.0 0.00 0.00 0.00 98 1012.1
20260506035512 69 338 0.0 0.0 0.00 0.00 0.00 98 1012.3
20260506035009 69 62 0.0 0.0 0.00 0.00 0.00 97 1012.1
20260506034507 69 90 0.0 0.0 0.00 0.00 0.00 97 1012.3
20260506034004 69 78 0.0 0.0 0.00 0.00 0.00 97 1012.2
20260506033501 69 100 0.0 0.0 0.00 0.00 0.00 97 1012.3
20260506032957 69 315 2.0 2.0 0.00 0.00 0.00 97 1012.5
20260506032455 69 91 0.0 0.0 0.00 0.00 0.00 96 1012.4
20260506031951 70 103 1.0 1.0 0.00 0.00 0.00 96 1012.4
20260506031448 70 67 0.0 0.0 0.00 0.00 0.00 96 1012.1
20260506030946 70 279 2.0 2.0 0.00 0.00 0.00 96 1012.1
20260506030444 70 85 0.0 1.0 0.00 0.00 0.00 95 1011.9
20260506025940 70 308 2.0 2.0 0.00 0.00 0.00 95 1012.3
20260506025437 70 158 0.0 0.0 0.00 0.00 0.00 95 1012.1
20260506024934 70 90 0.0 0.0 0.00 0.00 0.00 95 1011.8
20260506024431 70 292 0.0 0.0 0.00 0.00 0.00 95 1012.0
20260506023926 70 240 1.0 2.0 0.00 0.00 0.00 95 1011.9
20260506023424 70 76 0.0 0.0 0.00 0.00 0.00 94 1012.1
20260506022920 70 74 0.0 0.0 0.00 0.00 0.00 94 1012.0
20260506022418 71 77 0.0 0.0 0.00 0.00 0.00 93 1012.2
20260506021916 71 105 0.0 1.0 0.00 0.00 0.00 93 1012.0
20260506021413 71 106 1.0 1.0 0.00 0.00 0.00 93 1011.7
20260506020910 71 124 1.0 1.0 0.00 0.00 0.00 92 1012.0
20260506020408 71 166 1.0 2.0 0.00 0.00 0.00 92 1012.0
20260506015905 71 238 1.0 1.0 0.00 0.00 0.00 92 1012.0
20260506015402 72 341 2.0 2.0 0.00 0.00 0.00 91 1012.0
20260506014859 72 104 0.0 0.0 0.00 0.00 0.00 91 1011.7
20260506014356 72 112 0.0 0.0 0.00 0.00 0.00 90 1011.8
20260506013852 72 59 0.0 0.0 0.00 0.00 0.00 90 1011.7
20260506013350 72 91 0.0 0.0 0.00 0.00 0.00 89 1011.8
20260506012846 73 99 0.0 0.0 0.00 0.00 0.00 89 1011.8
20260506012343 73 94 0.0 0.0 0.00 0.00 0.00 89 1011.7
20260506011840 73 88 0.0 0.0 0.00 0.00 0.00 89 1011.7
20260506011337 72 107 0.0 1.0 0.00 0.00 0.00 89 1011.7
20260506010834 73 102 0.0 1.0 0.00 0.00 0.00 89 1011.6
20260506010333 73 75 0.0 1.0 0.00 0.00 0.00 89 1011.7
20260506005829 73 77 0.0 0.0 0.00 0.00 0.00 88 1011.4
20260506005326 73 72 0.0 0.0 0.00 0.00 0.00 88 1011.5
20260506004822 73 108 0.0 1.0 0.00 0.00 0.00 88 1011.2
20260506004320 73 112 0.0 0.0 0.00 0.00 0.00 88 1011.1
20260506003815 73 180 1.0 1.0 0.00 0.00 0.00 87 1011.3
20260506003312 74 74 0.0 1.0 0.00 0.00 0.00 86 1011.3
20260506002808 74 94 0.0 1.0 0.00 0.00 0.00 86 1011.2
20260506002306 74 254 1.0 1.0 0.00 0.00 0.00 85 1011.0
20260506001801 74 91 1.0 1.0 0.00 0.00 0.00 85 1011.0
20260506001258 75 82 0.0 0.0 0.00 0.00 0.00 85 1011.1
20260506000755 75 107 0.0 1.0 0.00 0.00 0.00 85 1011.1
20260506000254 75 129 0.0 1.0 0.00 0.00 0.00 84 1011.2
20260505235749 75 87 0.0 0.0 0.00 0.00 0.00 84 1011.0
20260505235247 75 192 1.0 2.0 0.00 0.00 0.00 83 1011.0
20260505234744 75 89 0.0 1.0 0.00 0.00 0.00 83 1011.2
20260505234241 75 95 0.0 0.0 0.00 0.00 0.00 83 1011.1
20260505233737 75 94 0.0 0.0 0.00 0.00 0.00 83 1011.2
20260505233236 75 92 1.0 1.0 0.00 0.00 0.00 83 1011.2
20260505232733 76 95 0.0 0.0 0.00 0.00 0.00 83 1011.3
20260505232230 75 91 0.0 1.0 0.00 0.00 0.00 82 1011.5
20260505231726 76 80 0.0 0.0 0.00 0.00 0.00 83 1011.2
20260505231226 76 288 0.0 0.0 0.00 0.00 0.00 82 1011.3
20260505230723 76 9 0.0 1.0 0.00 0.00 0.00 82 1011.2
20260505230219 76 48 0.0 0.0 0.00 0.00 0.00 82 1011.1
20260505225716 76 357 1.0 2.0 0.00 0.00 0.00 82 1011.0
20260505225213 76 91 0.0 0.0 0.00 0.00 0.00 82 1011.2
20260505224709 76 112 0.0 0.0 0.00 0.00 0.00 82 1011.4
20260505224206 76 161 1.0 1.0 0.00 0.00 0.00 82 1011.0
20260505223704 76 94 0.0 0.0 0.00 0.00 0.00 81 1011.1
20260505223159 77 108 0.0 0.0 0.00 0.00 0.00 81 1011.0
20260505222656 77 276 1.0 2.0 0.00 0.00 0.00 80 1011.2
20260505222152 77 297 1.0 2.0 0.00 0.00 0.00 79 1011.4
20260505221650 77 285 1.0 1.0 0.00 0.00 0.00 80 1010.9
20260505221146 77 155 1.0 1.0 0.00 0.00 0.00 81 1011.2
20260505220643 77 77 0.0 0.0 0.00 0.00 0.00 80 1011.1
20260505220141 78 92 1.0 1.0 0.00 0.00 0.00 80 1011.2
20260505215638 78 158 0.0 1.0 0.00 0.00 0.00 79 1011.1
20260505215136 79 88 1.0 1.0 0.00 0.00 0.00 78 1011.2
20260505214634 79 40 0.0 0.0 0.00 0.00 0.00 78 1010.9
20260505214131 79 86 0.0 0.0 0.00 0.00 0.00 78 1011.1
20260505213629 78 108 0.0 0.0 0.00 0.00 0.00 79 1010.9
20260505213125 78 86 0.0 0.0 0.00 0.00 0.00 78 1011.0
20260505212620 79 91 0.0 0.0 0.00 0.00 0.00 76 1010.9
20260505212119 79 109 0.0 1.0 0.00 0.00 0.00 76 1010.9
20260505211615 80 319 1.0 1.0 0.00 0.00 0.00 77 1011.0